TimeCDT,TemperatureF,Dew PointF,Humidity,Sea Level PressureIn,VisibilityMPH,Wind Direction,Wind SpeedMPH,Gust SpeedMPH,PrecipitationIn,Events,Conditions,WindDirDegrees,DateUTC
12:52 AM,42.1,33.1,70,30.23,10.0,Calm,Calm,-,N/A,,Clear,0,2012-10-08 05:52:00
1:52 AM,39.0,34.0,82,30.24,10.0,SSE,3.5,-,N/A,,Clear,160,2012-10-08 06:52:00
2:52 AM,37.9,34.0,86,30.24,10.0,Calm,Calm,-,N/A,,Clear,0,2012-10-08 07:52:00
3:52 AM,37.0,35.1,93,30.23,10.0,SSW,3.5,-,N/A,,Clear,210,2012-10-08 08:52:00
4:52 AM,36.0,34.0,93,30.22,10.0,Calm,Calm,-,N/A,,Clear,0,2012-10-08 09:52:00
5:52 AM,35.1,33.1,92,30.23,10.0,South,4.6,-,N/A,,Clear,180,2012-10-08 10:52:00
6:52 AM,34.0,32.0,92,30.24,10.0,Calm,Calm,-,N/A,,Clear,0,2012-10-08 11:52:00
7:52 AM,34.0,32.0,92,30.24,10.0,SE,5.8,-,N/A,,Clear,140,2012-10-08 12:52:00
8:52 AM,41.0,36.0,82,30.25,10.0,Calm,Calm,-,N/A,,Clear,0,2012-10-08 13:52:00
9:52 AM,46.9,36.0,66,30.23,10.0,SE,4.6,-,N/A,,Clear,130,2012-10-08 14:52:00
10:52 AM,51.1,33.1,50,30.22,10.0,Calm,Calm,-,N/A,,Clear,0,2012-10-08 15:52:00
11:52 AM,55.0,34.0,45,30.20,10.0,Calm,Calm,-,N/A,,Clear,0,2012-10-08 16:52:00
12:52 PM,57.0,34.0,42,30.18,10.0,SSW,9.2,-,N/A,,Clear,210,2012-10-08 17:52:00
1:52 PM,60.1,37.0,42,30.15,10.0,Variable,6.9,-,N/A,,Clear,0,2012-10-08 18:52:00
2:52 PM,63.0,41.0,45,30.09,10.0,South,11.5,-,N/A,,Clear,190,2012-10-08 19:52:00
3:52 PM,64.9,45.0,48,30.06,10.0,South,13.8,-,N/A,,Clear,190,2012-10-08 20:52:00
4:52 PM,64.9,46.0,50,30.04,10.0,SSW,15.0,-,N/A,,Clear,200,2012-10-08 21:52:00
5:52 PM,64.0,46.0,52,30.03,10.0,SW,15.0,-,N/A,,Clear,220,2012-10-08 22:52:00
7:52 PM,59.0,46.9,64,30.02,10.0,SSE,6.9,-,N/A,,Clear,160,2012-10-09 00:52:00
8:52 PM,55.0,46.9,74,30.02,10.0,SE,6.9,-,N/A,,Clear,140,2012-10-09 01:52:00
9:52 PM,55.9,46.9,72,29.99,10.0,SE,8.1,-,N/A,,Clear,140,2012-10-09 02:52:00
10:52 PM,57.9,48.0,70,29.98,10.0,SSE,11.5,-,N/A,,Clear,160,2012-10-09 03:52:00
11:52 PM,59.0,50.0,72,29.96,10.0,South,16.1,24.2,N/A,,Clear,170,2012-10-09 04:52:00